| time (UTC) | temp F | wind direction | speed MPH | gust MPH | rain 1hr in | rain 24hr in | rain mn in | humidity % | barometer mb |
| 20260504234552 | 69 | 0 | 0.0 | 1.0 | 0.00 | 0.00 | 0.00 | 49 | 1003.2 |
| 20260504234034 | 69 | 0 | 0.0 | 2.0 | 0.00 | 0.00 | 0.00 | 51 | 1003.3 |
| 20260504233535 | 70 | 0 | 0.0 | 2.0 | 0.00 | 0.00 | 0.00 | 44 | 1003.1 |
| 20260504233053 | 71 | 0 | 0.0 | 2.0 | 0.00 | 0.00 | 0.00 | 38 | 1003.2 |
| 20260504232535 | 71 | 219 | 0.0 | 2.0 | 0.00 | 0.00 | 0.00 | 40 | 1003.1 |
| 20260504232035 | 72 | 0 | 0.0 | 3.0 | 0.00 | 0.00 | 0.00 | 37 | 1003.1 |
| 20260504231547 | 72 | 0 | 0.0 | 3.0 | 0.00 | 0.00 | 0.00 | 37 | 1003.1 |
| 20260504231034 | 73 | 219 | 1.0 | 4.0 | 0.00 | 0.00 | 0.00 | 34 | 1003.1 |
| 20260504230534 | 73 | 223 | 1.0 | 4.0 | 0.00 | 0.00 | 0.00 | 33 | 1003.1 |
| 20260504230107 | 73 | 221 | 1.0 | 7.0 | 0.00 | 0.00 | 0.00 | 34 | 1003.1 |
| 20260504225540 | 73 | 213 | 1.0 | 7.0 | 0.00 | 0.00 | 0.00 | 32 | 1003.0 |
| 20260504225036 | 73 | 210 | 3.0 | 7.0 | 0.00 | 0.00 | 0.00 | 32 | 1003.0 |
| 20260504224558 | 74 | 228 | 2.0 | 5.0 | 0.00 | 0.00 | 0.00 | 31 | 1003.0 |
| 20260504224036 | 74 | 196 | 2.0 | 6.0 | 0.00 | 0.00 | 0.00 | 32 | 1003.0 |
| 20260504223536 | 74 | 269 | 2.0 | 8.0 | 0.00 | 0.00 | 0.00 | 33 | 1003.0 |
| 20260504223051 | 74 | 256 | 2.0 | 8.0 | 0.00 | 0.00 | 0.00 | 31 | 1003.1 |
| 20260504222535 | 74 | 205 | 2.0 | 6.0 | 0.00 | 0.00 | 0.00 | 31 | 1003.1 |
| 20260504222034 | 74 | 210 | 2.0 | 6.0 | 0.00 | 0.00 | 0.00 | 32 | 1003.1 |
| 20260504221550 | 74 | 0 | 1.0 | 8.0 | 0.00 | 0.00 | 0.00 | 33 | 1003.1 |
| 20260504221035 | 74 | 257 | 3.0 | 9.0 | 0.00 | 0.00 | 0.00 | 32 | 1003.2 |
| 20260504220535 | 74 | 202 | 4.0 | 11.0 | 0.00 | 0.00 | 0.00 | 32 | 1003.3 |
| 20260504220057 | 74 | 248 | 4.0 | 12.0 | 0.00 | 0.00 | 0.00 | 31 | 1003.2 |
| 20260504215535 | 74 | 216 | 5.0 | 12.0 | 0.00 | 0.00 | 0.00 | 33 | 1003.2 |
| 20260504215035 | 74 | 267 | 3.0 | 12.0 | 0.00 | 0.00 | 0.00 | 33 | 1003.2 |
| 20260504214546 | 74 | 259 | 4.0 | 12.0 | 0.00 | 0.00 | 0.00 | 32 | 1003.3 |
| 20260504214035 | 74 | 227 | 3.0 | 8.0 | 0.00 | 0.00 | 0.00 | 33 | 1003.2 |
| 20260504213535 | 74 | 171 | 3.0 | 11.0 | 0.00 | 0.00 | 0.00 | 34 | 1003.5 |
| 20260504213047 | 74 | 227 | 5.0 | 11.0 | 0.00 | 0.00 | 0.00 | 32 | 1003.4 |
| 20260504212535 | 75 | 243 | 4.0 | 8.0 | 0.00 | 0.00 | 0.00 | 32 | 1003.6 |
| 20260504212035 | 75 | 284 | 3.0 | 7.0 | 0.00 | 0.00 | 0.00 | 34 | 1003.6 |
| 20260504211557 | 75 | 192 | 3.0 | 8.0 | 0.00 | 0.00 | 0.00 | 33 | 1003.6 |
| 20260504211035 | 75 | 201 | 2.0 | 12.0 | 0.00 | 0.00 | 0.00 | 34 | 1003.5 |
| 20260504210535 | 75 | 222 | 5.0 | 12.0 | 0.00 | 0.00 | 0.00 | 33 | 1003.6 |
| 20260504210056 | 75 | 242 | 3.0 | 11.0 | 0.00 | 0.00 | 0.00 | 34 | 1003.6 |
| 20260504205534 | 74 | 227 | 2.0 | 12.0 | 0.00 | 0.00 | 0.00 | 33 | 1003.6 |
| 20260504205034 | 74 | 319 | 5.0 | 12.0 | 0.00 | 0.00 | 0.00 | 32 | 1003.6 |
| 20260504204550 | 74 | 240 | 5.0 | 13.0 | 0.00 | 0.00 | 0.00 | 32 | 1003.6 |
| 20260504204034 | 74 | 231 | 5.0 | 13.0 | 0.00 | 0.00 | 0.00 | 34 | 1003.7 |
| 20260504203534 | 74 | 209 | 5.0 | 11.0 | 0.00 | 0.00 | 0.00 | 33 | 1003.7 |
| 20260504203044 | 74 | 190 | 5.0 | 11.0 | 0.00 | 0.00 | 0.00 | 35 | 1003.8 |
| 20260504202534 | 74 | 207 | 4.0 | 11.0 | 0.00 | 0.00 | 0.00 | 34 | 1003.8 |
| 20260504202034 | 74 | 245 | 3.0 | 12.0 | 0.00 | 0.00 | 0.00 | 34 | 1003.8 |
| 20260504201549 | 74 | 300 | 6.0 | 12.0 | 0.00 | 0.00 | 0.00 | 34 | 1003.9 |
| 20260504201033 | 74 | 230 | 6.0 | 11.0 | 0.00 | 0.00 | 0.00 | 33 | 1003.9 |
| 20260504200535 | 74 | 202 | 3.0 | 10.0 | 0.00 | 0.00 | 0.00 | 36 | 1004.0 |
| 20260504200057 | 73 | 203 | 5.0 | 10.0 | 0.00 | 0.00 | 0.00 | 36 | 1004.0 |
| 20260504195534 | 73 | 229 | 4.0 | 9.0 | 0.00 | 0.00 | 0.00 | 40 | 1004.3 |
| 20260504195034 | 73 | 220 | 4.0 | 12.0 | 0.00 | 0.00 | 0.00 | 39 | 1004.2 |
| 20260504194545 | 72 | 184 | 4.0 | 14.0 | 0.00 | 0.00 | 0.00 | 39 | 1004.4 |
| 20260504194034 | 73 | 186 | 4.0 | 14.0 | 0.00 | 0.00 | 0.00 | 40 | 1004.5 |
| 20260504193534 | 73 | 242 | 4.0 | 13.0 | 0.00 | 0.00 | 0.00 | 42 | 1004.5 |
| 20260504193045 | 73 | 217 | 6.0 | 13.0 | 0.00 | 0.00 | 0.00 | 38 | 1004.6 |
| 20260504192535 | 73 | 188 | 5.0 | 13.0 | 0.00 | 0.00 | 0.00 | 39 | 1004.6 |
| 20260504192034 | 73 | 169 | 4.0 | 10.0 | 0.00 | 0.00 | 0.00 | 39 | 1004.7 |
| 20260504191547 | 74 | 232 | 3.0 | 11.0 | 0.00 | 0.00 | 0.00 | 41 | 1004.6 |
| 20260504191034 | 73 | 182 | 3.0 | 11.0 | 0.00 | 0.00 | 0.00 | 42 | 1004.7 |
| 20260504190534 | 72 | 206 | 4.0 | 11.0 | 0.00 | 0.00 | 0.00 | 40 | 1004.8 |
| 20260504190042 | 72 | 286 | 4.0 | 10.0 | 0.00 | 0.00 | 0.00 | 42 | 1005.0 |
| 20260504185533 | 72 | 190 | 4.0 | 10.0 | 0.00 | 0.00 | 0.00 | 42 | 1005.1 |
| 20260504185033 | 72 | 229 | 5.0 | 11.0 | 0.00 | 0.00 | 0.00 | 41 | 1005.1 |
| 20260504184549 | 72 | 223 | 5.0 | 11.0 | 0.00 | 0.00 | 0.00 | 42 | 1005.1 |
| 20260504184037 | 72 | 231 | 5.0 | 13.0 | 0.00 | 0.00 | 0.00 | 43 | 1005.2 |
| 20260504183535 | 72 | 261 | 5.0 | 13.0 | 0.00 | 0.00 | 0.00 | 42 | 1005.3 |
| 20260504183038 | 72 | 178 | 4.0 | 13.0 | 0.00 | 0.00 | 0.00 | 41 | 1005.3 |
| 20260504182534 | 71 | 227 | 5.0 | 21.0 | 0.00 | 0.00 | 0.00 | 42 | 1005.3 |
| 20260504182034 | 71 | 257 | 8.0 | 21.0 | 0.00 | 0.00 | 0.00 | 44 | 1005.3 |
| 20260504181546 | 71 | 196 | 7.0 | 15.0 | 0.00 | 0.00 | 0.00 | 43 | 1005.4 |
| 20260504181035 | 71 | 207 | 6.0 | 14.0 | 0.00 | 0.00 | 0.00 | 42 | 1005.4 |
| 20260504180535 | 71 | 233 | 6.0 | 12.0 | 0.00 | 0.00 | 0.00 | 42 | 1005.3 |
| 20260504180044 | 71 | 248 | 3.0 | 12.0 | 0.00 | 0.00 | 0.00 | 45 | 1005.4 |
| 20260504175534 | 71 | 249 | 4.0 | 12.0 | 0.00 | 0.00 | 0.00 | 46 | 1005.4 |
| 20260504175034 | 70 | 198 | 5.0 | 12.0 | 0.00 | 0.00 | 0.00 | 45 | 1005.5 |
| 20260504174540 | 70 | 242 | 4.0 | 12.0 | 0.00 | 0.00 | 0.00 | 44 | 1005.5 |
| 20260504174035 | 70 | 241 | 4.0 | 12.0 | 0.00 | 0.00 | 0.00 | 45 | 1005.5 |
| 20260504173534 | 69 | 251 | 5.0 | 12.0 | 0.00 | 0.00 | 0.00 | 44 | 1005.6 |
| 20260504173039 | 70 | 214 | 5.0 | 13.0 | 0.00 | 0.00 | 0.00 | 44 | 1005.5 |
| 20260504172534 | 70 | 198 | 5.0 | 13.0 | 0.00 | 0.00 | 0.00 | 45 | 1005.7 |
| 20260504172034 | 69 | 275 | 5.0 | 12.0 | 0.00 | 0.00 | 0.00 | 46 | 1005.5 |
| 20260504171549 | 69 | 198 | 5.0 | 11.0 | 0.00 | 0.00 | 0.00 | 46 | 1005.7 |
| 20260504171035 | 68 | 284 | 5.0 | 11.0 | 0.00 | 0.00 | 0.00 | 46 | 1005.8 |
| 20260504170535 | 68 | 282 | 4.0 | 11.0 | 0.00 | 0.00 | 0.00 | 46 | 1005.8 |
| 20260504151035 | 64 | 198 | 2.0 | 9.0 | 0.00 | 0.00 | 0.00 | 50 | 1006.6 |
| 20260504150534 | 64 | 270 | 2.0 | 9.0 | 0.00 | 0.00 | 0.00 | 51 | 1006.6 |
| 20260504141034 | 62 | 202 | 4.0 | 9.0 | 0.00 | 0.00 | 0.00 | 52 | 1006.8 |
| 20260504140534 | 61 | 238 | 3.0 | 12.0 | 0.00 | 0.00 | 0.00 | 50 | 1006.8 |
| 20260504130536 | 57 | 232 | 2.0 | 8.0 | 0.00 | 0.00 | 0.00 | 54 | 1007.6 |
| 20260504120105 | 52 | 0 | 0.0 | 2.0 | 0.00 | 0.00 | 0.00 | 63 | 1007.8 |
| 20260504110534 | 53 | 0 | 1.0 | 6.0 | 0.00 | 0.00 | 0.00 | 57 | 1007.6 |
| 20260504100533 | 53 | 203 | 3.0 | 8.0 | 0.00 | 0.00 | 0.00 | 55 | 1007.4 |
| 20260504081554 | 52 | 194 | 2.0 | 8.0 | 0.00 | 0.00 | 0.00 | 57 | 1008.0 |
| 20260504081035 | 52 | 198 | 1.0 | 8.0 | 0.00 | 0.00 | 0.00 | 57 | 1008.0 |
| 20260504080534 | 52 | 216 | 2.0 | 5.0 | 0.00 | 0.00 | 0.00 | 57 | 1008.0 |
| 20260504050535 | 55 | 229 | 4.0 | 9.0 | 0.00 | 0.00 | 0.00 | 54 | 1009.0 |
| 20260504045534 | 55 | 221 | 3.0 | 8.0 | 0.00 | 0.00 | 0.00 | 55 | 1009.0 |
| 20260504045034 | 55 | 245 | 3.0 | 7.0 | 0.00 | 0.00 | 0.00 | 55 | 1009.0 |
| 20260504044544 | 54 | 209 | 2.0 | 6.0 | 0.00 | 0.00 | 0.00 | 56 | 1009.1 |
| 20260504044034 | 54 | 209 | 2.0 | 6.0 | 0.00 | 0.00 | 0.00 | 57 | 1009.1 |
| 20260504043534 | 54 | 217 | 2.0 | 6.0 | 0.00 | 0.00 | 0.00 | 58 | 1009.0 |
| 20260504043105 | 54 | 238 | 2.0 | 4.0 | 0.00 | 0.00 | 0.00 | 58 | 1009.1 |
| 20260504042534 | 54 | 221 | 0.0 | 3.0 | 0.00 | 0.00 | 0.00 | 60 | 1009.1 |
| 20260504042034 | 53 | 221 | 0.0 | 5.0 | 0.00 | 0.00 | 0.00 | 60 | 1009.2 |
| 20260504041545 | 53 | 0 | 1.0 | 5.0 | 0.00 | 0.00 | 0.00 | 61 | 1009.1 |
| 20260504041034 | 53 | 205 | 2.0 | 4.0 | 0.00 | 0.00 | 0.00 | 62 | 1009.1 |
| 20260504040539 | 52 | 236 | 1.0 | 8.0 | 0.00 | 0.00 | 0.00 | 63 | 1009.1 |
| 20260504040048 | 51 | 248 | 1.0 | 8.0 | 0.00 | 0.00 | 0.00 | 67 | 1009.1 |
| 20260504035535 | 50 | 216 | 1.0 | 8.0 | 0.00 | 0.00 | 0.00 | 72 | 1009.1 |
| 20260504035035 | 49 | 0 | 0.0 | 0.0 | 0.00 | 0.00 | 0.00 | 78 | 1009.0 |
| 20260504034546 | 49 | 0 | 0.0 | 0.0 | 0.00 | 0.00 | 0.00 | 81 | 1009.1 |
| 20260504034034 | 49 | 0 | 0.0 | 0.0 | 0.00 | 0.00 | 0.00 | 84 | 1009.0 |
| 20260504033534 | 49 | 0 | 0.0 | 0.0 | 0.00 | 0.00 | 0.00 | 86 | 1009.0 |
| 20260504033045 | 49 | 0 | 0.0 | 0.0 | 0.00 | 0.00 | 0.00 | 86 | 1009.1 |
| 20260504032534 | 49 | 0 | 0.0 | 0.0 | 0.00 | 0.00 | 0.00 | 86 | 1009.1 |
| 20260504032034 | 49 | 0 | 0.0 | 0.0 | 0.00 | 0.00 | 0.00 | 85 | 1009.2 |
| 20260504031551 | 49 | 0 | 0.0 | 0.0 | 0.00 | 0.00 | 0.00 | 84 | 1009.3 |
| 20260504031034 | 49 | 0 | 0.0 | 0.0 | 0.00 | 0.00 | 0.00 | 83 | 1009.2 |
| 20260504030534 | 49 | 0 | 0.0 | 0.0 | 0.00 | 0.00 | 0.00 | 83 | 1009.3 |
| 20260504030100 | 49 | 0 | 0.0 | 0.0 | 0.00 | 0.00 | 0.00 | 83 | 1009.3 |
| 20260504025534 | 49 | 0 | 0.0 | 1.0 | 0.00 | 0.00 | 0.00 | 84 | 1009.4 |
| 20260504025034 | 49 | 0 | 0.0 | 1.0 | 0.00 | 0.00 | 0.00 | 84 | 1009.5 |
| 20260504024545 | 49 | 0 | 0.0 | 1.0 | 0.00 | 0.00 | 0.00 | 83 | 1009.6 |
| 20260504024034 | 49 | 0 | 0.0 | 1.0 | 0.00 | 0.00 | 0.00 | 82 | 1009.6 |
| 20260504023534 | 49 | 0 | 0.0 | 1.0 | 0.00 | 0.00 | 0.00 | 81 | 1009.6 |
| 20260504023049 | 50 | 0 | 0.0 | 0.0 | 0.00 | 0.00 | 0.00 | 82 | 1009.9 |
| 20260504022538 | 50 | 0 | 0.0 | 1.0 | 0.00 | 0.00 | 0.00 | 82 | 1009.7 |
| 20260504022035 | 50 | 0 | 0.0 | 1.0 | 0.00 | 0.00 | 0.00 | 81 | 1009.6 |
| 20260504021548 | 50 | 0 | 0.0 | 1.0 | 0.00 | 0.00 | 0.00 | 80 | 1009.7 |
| 20260504021036 | 50 | 0 | 0.0 | 1.0 | 0.00 | 0.00 | 0.00 | 81 | 1009.6 |
| 20260504020538 | 50 | 0 | 0.0 | 1.0 | 0.00 | 0.00 | 0.00 | 79 | 1009.7 |
| 20260504020053 | 50 | 0 | 0.0 | 1.0 | 0.00 | 0.00 | 0.00 | 78 | 1009.7 |
| 20260504015534 | 50 | 0 | 0.0 | 1.0 | 0.00 | 0.00 | 0.00 | 78 | 1009.8 |
| 20260504015034 | 50 | 0 | 0.0 | 2.0 | 0.00 | 0.00 | 0.00 | 78 | 1010.0 |
| 20260504014549 | 50 | 0 | 0.0 | 2.0 | 0.00 | 0.00 | 0.00 | 78 | 1010.0 |
| 20260504014034 | 50 | 254 | 0.0 | 2.0 | 0.00 | 0.00 | 0.00 | 79 | 1010.1 |
| 20260504013535 | 50 | 0 | 0.0 | 2.0 | 0.00 | 0.00 | 0.00 | 79 | 1010.2 |
| 20260504013051 | 50 | 0 | 0.0 | 2.0 | 0.00 | 0.00 | 0.00 | 79 | 1010.2 |
| 20260504012534 | 50 | 0 | 0.0 | 2.0 | 0.00 | 0.00 | 0.00 | 78 | 1010.1 |
| 20260504012035 | 50 | 0 | 0.0 | 4.0 | 0.00 | 0.00 | 0.00 | 78 | 1010.2 |
| 20260504011549 | 50 | 0 | 0.0 | 4.0 | 0.00 | 0.00 | 0.00 | 78 | 1010.1 |
| 20260504011037 | 50 | 279 | 0.0 | 4.0 | 0.00 | 0.00 | 0.00 | 77 | 1010.0 |
| 20260504010550 | 51 | 295 | 1.0 | 8.0 | 0.00 | 0.00 | 0.00 | 75 | 1010.2 |
| 20260504010055 | 51 | 252 | 1.0 | 8.0 | 0.00 | 0.00 | 0.00 | 73 | 1010.5 |
| 20260504005534 | 52 | 166 | 2.0 | 9.0 | 0.00 | 0.00 | 0.00 | 71 | 1010.5 |
| 20260504005034 | 52 | 326 | 1.0 | 9.0 | 0.00 | 0.00 | 0.00 | 69 | 1010.4 |
| 20260504004548 | 52 | 271 | 2.0 | 8.0 | 0.00 | 0.00 | 0.00 | 67 | 1010.6 |
| 20260504004035 | 52 | 295 | 2.0 | 11.0 | 0.00 | 0.00 | 0.00 | 66 | 1010.4 |
| 20260504003534 | 53 | 314 | 3.0 | 11.0 | 0.00 | 0.00 | 0.00 | 65 | 1010.2 |
| 20260504003044 | 53 | 295 | 4.0 | 11.0 | 0.00 | 0.00 | 0.00 | 64 | 1010.1 |
| 20260504002534 | 53 | 245 | 4.0 | 11.0 | 0.00 | 0.00 | 0.00 | 62 | 1010.1 |
| 20260504002034 | 53 | 300 | 3.0 | 9.0 | 0.00 | 0.00 | 0.00 | 62 | 1009.9 |
| 20260504001556 | 53 | 317 | 3.0 | 16.0 | 0.00 | 0.00 | 0.00 | 61 | 1009.9 |
| 20260504001034 | 54 | 287 | 5.0 | 20.0 | 0.00 | 0.00 | 0.00 | 60 | 1009.9 |
| 20260504000534 | 54 | 296 | 7.0 | 20.0 | 0.00 | 0.00 | 0.00 | 59 | 1009.9 |
| 20260504000040 | 54 | 258 | 7.0 | 16.0 | 0.00 | 0.00 | 0.00 | 60 | 1009.9 |
| 20260503235533 | 55 | 255 | 6.0 | 14.0 | 0.00 | 0.00 | 0.00 | 58 | 1009.6 |
| 20260503235035 | 55 | 242 | 4.0 | 9.0 | 0.00 | 0.00 | 0.00 | 52 | 1009.6 |